STARLINK-3133 (49416 NORAD) Tracking and Keplerian Element Data

This shows tracking and keplerian element data for the satellite.

Feedback or suggestion? Click here.




ElementValue
Catalog49416
NameSTARLINK-3133
Epoch Orbit366
Epoch Day15.91668981
Epoch Year2022
RAAN185.3624
Inclination53.2175
Eccentricity0.0001529
Argument of Perigee45.2397
Mean Anonmoly321.6881
Mean Motion15.24453728
Decay Rate-0.00655688
L11 49416U 21104J 22015.91668981 -.00655688 00000+0 -28403-1 0 9997
L22 49416 53.2175 185.3624 0001529 45.2397 321.6881 15.24453728 3660

Live tracking and technical data element details for STARLINK-3133 (NORAD 49416). STARLINK-3133 can be tracked NOW for your location showing map with azimuth and elevation plus other details from your city location.

Track the satellite on the map from your city or location and see movement details for azimuth, elevation, latitude, longitude, range, height, and movement on the map or in text.







IsCatalogInMostPopularTable: catalog: 49416, numindb: 5
Update: records affected: 1



GetName: 49416 STARLINK-3133

Hit Count: updated at: Thu, 20 Jan 2022 16:59:23 GMT